This is the latest recevied weather packets stored in our database for station/object DG2US-10. If no packets are shown the sender has not sent any weather packets the latest 10 day(s).
| Time | Temp. | Humidity | Pressure | Rain* | Wind** | Luminosity | Snow |
|---|---|---|---|---|---|---|---|
| 1777561814 | 23.33° C | 24% | 1029.4 hPa | - | - | - | - |
| 1777560914 | 21.67° C | 23% | 1029.5 hPa | - | - | - | - |
| 1777560014 | 23.89° C | 25% | 1029.7 hPa | - | - | - | - |
| 1777559114 | 21.11° C | 26% | 1029.8 hPa | - | - | - | - |
| 1777558214 | 23.89° C | 26% | 1029.9 hPa | - | - | - | - |
| 1777557314 | 22.22° C | 22% | 1030 hPa | - | - | - | - |
| 1777556414 | 22.78° C | 26% | 1030 hPa | - | - | - | - |
| 1777555514 | 22.78° C | 24% | 1030.2 hPa | - | - | - | - |
| 1777554614 | 23.89° C | 24% | 1030.3 hPa | - | - | - | - |
| 1777553714 | 23.33° C | 23% | 1030.6 hPa | - | - | - | - |
| 1777552813 | 22.22° C | 24% | 1030.7 hPa | - | - | - | - |
| 1777551913 | 24.44° C | 21% | 1030.8 hPa | - | - | - | - |
| 1777551013 | 23.89° C | 23% | 1031 hPa | - | - | - | - |
| 1777550113 | 25° C | 20% | 1031.1 hPa | - | - | - | - |
| 1777549213 | 25° C | 20% | 1031.2 hPa | - | - | - | - |
| 1777548313 | 25° C | 19% | 1031.4 hPa | - | - | - | - |
| 1777547413 | 25.56° C | 19% | 1031.5 hPa | - | - | - | - |
| 1777546513 | 25° C | 18% | 1031.5 hPa | - | - | - | - |
| 1777545613 | 27.78° C | 16% | 1031.8 hPa | - | - | - | - |
| 1777544713 | 27.78° C | 16% | 1032.1 hPa | - | - | - | - |
| 1777543813 | 28.89° C | 14% | 1032.1 hPa | - | - | - | - |
| 1777542912 | 29.44° C | 13% | 1032.2 hPa | - | - | - | - |
| 1777542012 | 31.11° C | 13% | 1032.2 hPa | - | - | - | - |
| 1777541112 | 31.11° C | 12% | 1032.3 hPa | - | - | - | - |
| 1777540212 | 30.56° C | 12% | 1032.4 hPa | - | - | - | - |
* Rain since midnight (hover to see other rain measurements)
** Current wind speed in m/s (hover to see current wind gust speed)